STARLINK-32314, 61709

Orbit data source: Space-Track

STARLINK-32314, 61709 is a payload satellite owned by SpaceX/Seattle (US) in LEO that was launched on Wed, 30 Oct 2024 UTC via an FALCON 9 launch vehicle from the Air Force Eastern Test Range (AFETR). Payload-class satellites include a variety of spacecraft equipped with specific instruments for various scientific and technological missions. These include communications satellites like Starlink; space stations such as the ISS; scientific satellites like the Hubble; Earth observation satellites from companies like Planet Labs, Umbra, and HawkEye 360; GPS; miniature CubeSats for education and research; and military/defense satellites.

Loading next visibility...
Identifier
61709, 2024-196C
Orbit
LEO
Last TLE update
12 hours ago
Origin
Manufacturer
SpaceX/Seattle
Mission
Operational Commercial Communications
Bus & Motor
STARLINK V2M, Unknown motor
Mass
730 kg wet, ~700 kg dry
Launch date (UTC)
2024-10-30 (8 months ago)
Launch vehicle
FALCON 9
Launch site
Air Force Eastern Test Range (AFETR)
Object type
Payload
Rocket body
Debris
Shape & HBR
Box + 2 Pan, 29 m
Radar Cross Section
36.964 m², Large (>1 m²)

Expand to show TLE details & history

TLE from 12 hours ago
0 STARLINK-32314
1 61709U 24196C   25182.71452541 -.00001179  00000-0 -27690-4 0  9990
2 61709  53.1584 186.9180 0001322  70.4677 289.6466 15.30199448 38739
Epoch: 2025-07-01T17:08Z
TLE epoch observation values (Epoch: 2025-07-01T17:08:54.995Z)
Latitude
-0.00005°
Longitude
9.6828°
Altitude
475.812 km
Speed
7.629 km/s
True Right ascension
12h 27m 40s
True Declination
0° 00' 00"
Sunlit
Object was in daylight at epoch
Visualization orbit readout
Latitude
36.97783°
Longitude
153.32207°
Altitude
477.725 km
Speed
7.632 km/s
Apparent Right ascension
00h 58m 31s
Apparent Declination
0° 15' 39"
Sunlit
Object is in daylight
Visualization observer readout
Local Sidereal Time
16:23:02
Azimuth
62.449° ENE
Elevation
-28.581°
Doppler factor
1
Orbital elements
Apogee altitude
476.379 km
Perigee altitude
474.567 km
Semi-major axis
6,853.61 km
Eccentricity
0.00013
Inclination
53.1584°
RAAN
186.918°
Arg. of periapsis
70.4677°
True anomaly
Unknown
Mean anomaly
289.6466°
Eccentric anomaly
Unknown
Mean motion
3.82529 °/min
Orbital period
94.11 mins
BSTAR
-0.00002769
Loading maneuver chart data...
Loading SW <> Apogee altitude chart data...
Loading historical data...
Loading historical data...
Loading historical data...
Loading historical data...
Loading historical data...
Loading historical data...
Loading historical data...

STARLINK-32314 Visibility forecast

Observer location: undefined°, undefined°

Span
Click to sort rows by Start time (UTC) header in descending order
Start Az.
Max El. time (UTC)
Max El. Az.
Max El.
End time (UTC)
End Az.
5 mins2025-07-02 09:18:35.732Z328.155° NNW2025-07-02 09:20:35.732Z12.019° NNE32.932°2025-07-02 09:23:35.732Z100.857° ESE
4 mins2025-07-02 10:57:35.732Z258.081° W2025-07-02 10:58:35.732Z234.661° WSW20.836°2025-07-02 11:01:35.732Z178.317° S
5 mins2025-07-03 02:14:35.732Z192.864° SSW2025-07-03 02:16:35.732Z135.173° SSE32.887°2025-07-03 02:19:35.732Z66.175° ENE
5 mins2025-07-03 03:52:35.732Z282.829° WNW2025-07-03 03:54:35.732Z330.448° NNW25.037°2025-07-03 03:57:35.732Z30.071° NE
|